Weather Roundup
Issued by NWS

Home | Current Version | Previous Version | Graphics & Text | Print | Product List | Glossary Off
Versions: 1 2 3 4 5 6 7 8 9 10 11 12 13 14 15 16 17 18 19 20 21 22 23 24 25 26 27 28 29 30 31 32 33 34 35 36 37 38 39 40 41 42 43 44 45 46 47 48 49 50

835
NZUS93 KARX 281210
HRRWXR

CURRENT HOURLY OBSERVATIONS ACROSS
MUCH OF THE UPPER MISSISSIPPI VALLEY
NATIONAL WEATHER SERVICE LA CROSSE WI
700 AM CDT SUN MAY 28 2017


...SOUTHEAST MINNESOTA...


CITY           SKY/WX    TMP DP  RH WIND       PRES   REMARKS
ROCHESTER      SUNNY     55  51  86 SW9       29.78S
ROCHESTER/MAYO FAIR      57  50  76 S5        29.77R
WINONA         SUNNY     55  54  94 CALM      29.76S
AUSTIN         SUNNY     54  50  87 SW3       29.78R
ALBERT LEA     SUNNY     61  52  72 W7        29.78R
DODGE CENTER   SUNNY     55  50  82 SW9       29.77R
PRESTON        SUNNY     56  49  77 SW7       29.78S
OWATONNA       SUNNY     57  50  77 W14       29.76S
FARIBAULT      SUNNY     57  52  82 W10       29.76S
$$

...ELSEWHERE IN MINNESOTA...


CITY           SKY/WX    TMP DP  RH WIND       PRES   REMARKS
MINNEAPOLIS    MOSUNNY   59  49  69 W9        29.72F
INTNL FALLS    CLOUDY    53  47  79 SE6       29.63S
DULUTH         CLOUDY    54  50  86 CALM      29.65F
RED WING       SUNNY     57  50  77 W3        29.72F
REDWOOD FALLS  SUNNY     54  46  74 W8        29.80R
MANKATO        MOSUNNY   57  50  77 W13       29.78R
WORTHINGTON    SUNNY     54  47  77 NW9       29.85R
FAIRMONT       SUNNY     57  49  74 NW16      29.81R
$$

...SOUTHWEST WISCONSIN...


CITY           SKY/WX    TMP DP  RH WIND       PRES   REMARKS
LA CROSSE      PTSUNNY   59  56  89 S7        29.76S
PRAIRIE DU CHI CLOUDY    57  56  94 CALM      29.79S FOG
BOSCOBEL       CLOUDY    61  57  87 CALM      29.79R
LONE ROCK      CLOUDY    59  54  83 CALM      29.78S
PLATTEVILLE    CLOUDY    58  57  97 NW5       29.79R
FORT MC COY    CLOUDY    54  54 100 CALM      29.78S
CAMP DOUGLAS   CLOUDY    56  56 100 E3        29.78S
MAUSTON-NEW LI LGT RAIN  57  55  92 NW3       29.78S
VIROQUA        CLOUDY    56  54  92 SW5       29.79S
WIS DELLS      CLOUDY    56  55  94 CALM      29.77S
$$

...ELSEWHERE IN WISCONSIN...


CITY           SKY/WX    TMP DP  RH WIND       PRES   REMARKS
MILWAUKEE      CLOUDY    61  54  77 CALM      29.73S
MADISON        LGT RAIN  56  55  97 CALM      29.77R
GREEN BAY      LGT RAIN  59  57  93 W6        29.75R
EAU CLAIRE     SUNNY     57  53  86 S5        29.72F
BLACK RVR FLS  CLOUDY    55  55 100 CALM      29.76S FOG
MEDFORD        CLOUDY    53  50  92 SE5       29.75F
WAUSAU         RAIN      54  53  97 CALM      29.77R FOG
WIS RAPIDS     LGT RAIN  56  55  97 CALM      29.79S
MARSHFIELD     LGT RAIN  55  53  93 CALM      29.76F
RICE LAKE      SUNNY     56  50  79 SE7       29.71F
$$

...NORTHEAST IOWA...


CITY           SKY/WX    TMP DP  RH WIND       PRES   REMARKS
WATERLOO       SUNNY     57  53  86 CALM      29.80R
DUBUQUE        CLOUDY    57  53  86 N6        29.79R
DECORAH        MOSUNNY   57  52  82 CALM      29.78S
MASON CITY     SUNNY     57  52  83 W9        29.81S
CHARLES CITY   SUNNY     57  55  94 W5        29.80S
OELWEIN        MOSUNNY   57  55  94 W3        29.81R
$$

...ELSEWHERE IN IOWA...


CITY           SKY/WX    TMP DP  RH WIND       PRES   REMARKS
DES MOINES     MOSUNNY   58  54  86 CALM      29.84R
IOWA CITY      SUNNY     60  56  86 NW6       29.81S
FORT DODGE     MOSUNNY   54  50  87 SW5       29.83S
MARSHALLTOWN   SUNNY     56  55  97 NW5       29.82R
CEDAR RAPIDS   MOSUNNY   57  57 100 NW6       29.79F
$$

...NORTHERN ILLINOIS...


CITY           SKY/WX    TMP DP  RH WIND       PRES   REMARKS
CHICAGO-OHARE  CLOUDY    60  56  86 SE6       29.72S
CHICAGO-MIDWAY CLOUDY    61  56  83 SE3       29.73R
MOLINE         CLOUDY    63  56  78 VRB3      29.78R
ROCKFORD       TSTM      62  59  90 NW6       29.76R
PEORIA         CLOUDY    64  63  96 CALM      29.75R FOG
$$

NOTE: "FAIR" INDICATES FEW OR NO CLOUDS BELOW 12,000 FEET WITH NO
SIGNIFICANT WEATHER AND/OR OBSTRUCTIONS TO VISIBILITY. WIND
SPEEDS ARE IN MILES-PER-HOUR.




USA.gov is the U.S. government's official web portal to all federal, state and local government web resources and services.